User: anonymous   Login
Location: Carabito
(9.8355°N, 67.9249°W)
Time: 11:54:26
(UTC+00:00)
Language:

CZ-4B R/B - Orbit

View from above orbital plane
View from above orbital plane
View from above satellite
View from above satellite

Ground track
Ground track

The orbit data is extracted from the following two-line orbital elements,

1 27432U 02024C   24203.76477692  .00000160  00000-0  10623-3 0  9997
2 27432  98.9731 246.2496 0049275 273.1887 196.5205 14.14337928144990
Epoch (UTC): 21 July 2024 18:21:16
Eccentricity: 0.0049275
inclination: 98.9731°
perigee height: 809 km
apogee height: 880 km
right ascension of ascending node: 246.2496°
argument of perigee: 273.1887°
revolutions per day: 14.14337928
mean anomaly at epoch: 196.5205°
orbit number at epoch: 14499

The dashed part of the orbit path shows where the satellite is in the earth's shadow,  

DLR